OZ1IEP-5 Weather Reports


Display with metric or nautical units.
time (UTC)temp
F
wind
direction
speed
MPH
gust
MPH
rain 1hr
in
rain 24hr
in
rain mn
in
humidity
%
barometer
mb
20260506215006 42 138 0.0 0.0 0.00 0.00 0.00 83 1011.8
20260506214005 42 138 0.0 0.0 0.00 0.00 0.00 82 1011.6
20260506213008 43 138 0.0 0.0 0.00 0.00 0.00 82 1011.5
20260506212006 43 138 0.0 1.0 0.00 0.00 0.00 82 1011.5
20260506211005 44 138 0.0 1.0 0.00 0.00 0.00 82 1011.4
20260506210008 44 130 0.0 1.0 0.00 0.00 0.00 82 1011.4
20260506205006 44 141 0.0 2.0 0.00 0.00 0.00 81 1011.4
20260506204006 45 141 0.0 2.0 0.00 0.00 0.00 80 1011.1
20260506203008 45 139 1.0 3.0 0.00 0.00 0.00 79 1011.1
20260506202005 45 142 1.0 6.0 0.00 0.00 0.00 78 1011.0
20260506201006 45 141 0.0 3.0 0.00 0.00 0.00 76 1011.0
20260506200008 45 138 0.0 3.0 0.00 0.00 0.00 75 1010.9
20260506195005 46 131 0.0 2.0 0.00 0.00 0.00 74 1010.9
20260506194006 46 131 1.0 2.0 0.00 0.00 0.00 72 1010.9
20260506193008 46 130 0.0 3.0 0.00 0.00 0.00 71 1010.9
20260506192005 47 133 0.0 3.0 0.00 0.00 0.00 70 1010.9
20260506191005 48 143 0.0 1.0 0.00 0.00 0.00 68 1010.8
20260506190018 48 146 0.0 2.0 0.00 0.00 0.00 66 1010.7
20260506185005 49 143 0.0 2.0 0.00 0.00 0.00 64 1010.5
20260506184006 50 153 0.0 3.0 0.00 0.00 0.00 63 1010.4
20260506183008 50 141 2.0 7.0 0.00 0.00 0.00 61 1010.3
20260506182005 51 151 1.0 9.0 0.00 0.00 0.00 59 1010.2
20260506181005 51 156 2.0 6.0 0.00 0.00 0.00 58 1010.0
20260506180007 52 152 1.0 7.0 0.00 0.00 0.00 56 1009.9
20260506175005 52 149 1.0 6.0 0.00 0.00 0.00 55 1009.9
20260506174006 52 151 1.0 7.0 0.00 0.00 0.00 54 1009.9
20260506173008 53 154 3.0 7.0 0.00 0.00 0.00 53 1009.8
20260506172006 53 152 1.0 9.0 0.00 0.00 0.00 53 1009.8
20260506171006 53 144 2.0 8.0 0.00 0.00 0.00 51 1009.6
20260506170007 53 154 2.0 12.0 0.00 0.00 0.00 51 1009.6
20260506165006 53 167 2.0 7.0 0.00 0.00 0.00 51 1009.6
20260506164006 53 162 1.0 6.0 0.00 0.00 0.00 51 1009.7
20260506163009 53 182 0.0 7.0 0.00 0.00 0.00 52 1009.5
20260506162005 53 152 0.0 12.0 0.00 0.00 0.00 51 1009.4
20260506161005 53 158 0.0 3.0 0.00 0.00 0.00 52 1009.4
20260506160008 53 174 0.0 7.0 0.00 0.00 0.00 51 1009.4
20260506155005 53 160 1.0 12.0 0.00 0.00 0.00 52 1009.4
20260506154006 53 161 2.0 9.0 0.00 0.00 0.00 52 1009.4
20260506153008 53 178 1.0 12.0 0.00 0.00 0.00 51 1009.4
20260506152006 54 155 0.0 12.0 0.00 0.00 0.00 54 1009.4
20260506151006 55 164 2.0 12.0 0.00 0.00 0.00 57 1009.3
20260506150007 55 156 1.0 9.0 0.00 0.00 0.00 59 1009.3
20260506145006 55 148 5.0 12.0 0.00 0.00 0.00 58 1009.3
20260506144005 56 140 5.0 13.0 0.00 0.00 0.00 59 1009.2
20260506143007 56 119 1.0 3.0 0.00 0.00 0.00 57 1009.1
20260506142005 56 190 0.0 0.0 0.00 0.00 0.00 61 1009.0
20260506141006 56 300 0.0 3.0 0.00 0.00 0.00 62 1009.0
20260506140008 56 96 0.0 0.0 0.00 0.00 0.00 57 1009.0
20260506135005 56 109 0.0 1.0 0.00 0.00 0.00 60 1008.8
20260506134005 56 40 0.0 7.0 0.00 0.00 0.00 59 1008.8
20260506133007 56 53 1.0 7.0 0.00 0.00 0.00 56 1008.8
20260506132005 56 45 0.0 1.0 0.00 0.00 0.00 58 1008.7
20260506131006 55 45 0.0 3.0 0.00 0.00 0.00 61 1008.8
20260506130007 55 0 1.0 7.0 0.00 0.00 0.00 61 1008.8
20260506125005 55 37 0.0 5.0 0.00 0.00 0.00 59 1008.7
20260506124006 55 12 3.0 12.0 0.00 0.00 0.00 59 1008.7
20260506123008 56 8 1.0 12.0 0.00 0.00 0.00 56 1008.5
20260506122006 58 348 6.0 12.0 0.00 0.00 0.00 58 1008.4
20260506121005 58 2 1.0 12.0 0.00 0.00 0.00 57 1008.5
20260506120008 58 4 4.0 12.0 0.00 0.00 0.00 57 1008.5
20260506115006 57 358 3.0 15.0 0.00 0.00 0.00 55 1008.6
20260506114005 57 4 2.0 12.0 0.00 0.00 0.00 55 1008.7
20260506113008 57 0 6.0 12.0 0.00 0.00 0.00 56 1008.7
20260506112006 56 22 2.0 12.0 0.00 0.00 0.00 56 1008.8
20260506111005 56 4 3.0 14.0 0.00 0.00 0.00 57 1008.7
20260506110007 57 359 5.0 13.0 0.00 0.00 0.00 57 1008.7
20260506105005 56 342 3.0 12.0 0.00 0.00 0.00 59 1008.8
20260506104005 56 352 2.0 10.0 0.00 0.00 0.00 56 1008.8
20260506103008 56 1 3.0 10.0 0.00 0.00 0.00 54 1008.8
20260506102005 56 355 3.0 10.0 0.00 0.00 0.00 53 1008.8
20260506101005 56 359 1.0 9.0 0.00 0.00 0.00 50 1008.8
20260506100007 55 16 3.0 12.0 0.00 0.00 0.00 46 1008.8
20260506095006 55 1 1.0 12.0 0.00 0.00 0.00 47 1008.8
20260506094006 55 0 3.0 13.0 0.00 0.00 0.00 48 1008.8
20260506093007 54 6 3.0 10.0 0.00 0.00 0.00 49 1008.8
20260506092006 54 354 3.0 10.0 0.00 0.00 0.00 50 1008.8
20260506091005 54 2 2.0 8.0 0.00 0.00 0.00 52 1008.8
20260506090007 54 352 3.0 10.0 0.00 0.00 0.00 49 1008.8
20260506085006 54 351 3.0 8.0 0.00 0.00 0.00 50 1008.8
20260506084005 53 358 2.0 12.0 0.00 0.00 0.00 53 1008.9
20260506083008 53 358 3.0 10.0 0.00 0.00 0.00 53 1008.8
20260506082005 52 353 3.0 9.0 0.00 0.00 0.00 52 1008.8
20260506081006 52 9 2.0 6.0 0.00 0.00 0.00 54 1008.8
20260506073008 50 0 1.0 5.0 0.00 0.00 0.00 57 1008.8
20260506072006 49 34 1.0 6.0 0.00 0.00 0.00 56 1008.8
20260506071006 49 23 2.0 5.0 0.00 0.00 0.00 57 1008.8
20260506062006 47 30 1.0 9.0 0.00 0.00 0.00 57 1008.9
20260506061005 47 20 1.0 10.0 0.00 0.00 0.00 56 1009.0
20260506051005 46 39 1.0 7.0 0.00 0.00 0.00 58 1009.3
20260506045005 46 46 0.0 1.0 0.00 0.00 0.00 63 1009.3
20260506044005 45 13 0.0 1.0 0.00 0.00 0.00 62 1009.3
20260506043007 45 28 0.0 1.0 0.00 0.00 0.00 62 1009.3
20260506042006 45 8 0.0 6.0 0.00 0.00 0.00 62 1009.3
20260506041008 45 6 0.0 3.0 0.00 0.00 0.00 61 1009.3
20260506040010 45 21 0.0 5.0 0.00 0.00 0.00 60 1009.3
20260506035008 44 30 0.0 3.0 0.00 0.00 0.00 61 1009.3
20260506034006 44 19 0.0 3.0 0.00 0.00 0.00 63 1009.3
20260506033009 44 49 0.0 5.0 0.00 0.00 0.00 62 1009.3
20260506032006 44 28 1.0 5.0 0.00 0.00 0.00 62 1009.3
20260506031006 44 37 0.0 7.0 0.00 0.00 0.00 62 1009.3
20260506030008 44 26 0.0 7.0 0.00 0.00 0.00 62 1009.3
20260506025005 44 27 0.0 2.0 0.00 0.00 0.00 62 1009.3
20260506024006 44 38 0.0 6.0 0.00 0.00 0.00 61 1009.5
20260506023008 44 45 0.0 3.0 0.00 0.00 0.00 63 1009.5
20260506022006 45 51 0.0 6.0 0.00 0.00 0.00 62 1009.6
20260506021006 45 42 0.0 2.0 0.00 0.00 0.00 62 1009.8
20260506020008 45 46 0.0 3.0 0.00 0.00 0.00 63 1009.8
20260506015005 45 45 0.0 3.0 0.00 0.00 0.00 65 1009.8
20260506014006 45 33 0.0 5.0 0.00 0.00 0.00 66 1009.8
20260506013008 45 29 0.0 5.0 0.00 0.00 0.00 68 1009.6
20260506012005 45 29 0.0 3.0 0.00 0.00 0.00 70 1009.6
20260506011006 45 31 0.0 5.0 0.00 0.00 0.00 72 1009.7
20260506010008 45 33 0.0 5.0 0.00 0.00 0.00 74 1009.6
20260506005006 45 33 0.0 5.0 0.00 0.00 0.00 76 1009.6
20260506004005 45 9 0.0 6.0 0.00 0.00 0.00 77 1009.4
20260506003008 45 2 0.0 2.0 0.00 0.00 0.00 77 1009.4
20260506002006 45 32 0.0 6.0 0.00 0.00 0.00 78 1009.4
20260506001006 45 9 0.0 7.0 0.00 0.00 0.00 78 1009.3
20260506000008 45 1 1.0 7.0 0.00 0.00 0.00 79 1009.3
20260505235006 45 358 1.0 6.0 0.00 0.00 0.00 79 1009.3
20260505234005 45 12 2.0 9.0 0.00 0.00 0.00 80 1009.3
20260505233008 45 2 1.0 7.0 0.00 0.00 0.00 81 1009.4
20260505232005 45 9 0.0 7.0 0.00 0.00 0.00 81 1009.4
20260505231005 45 8 1.0 7.0 0.00 0.00 0.00 82 1009.4
20260505230007 45 22 1.0 10.0 0.00 0.00 0.00 82 1009.4
20260505225006 45 23 1.0 10.0 0.00 0.00 0.00 82 1009.5
20260505224006 45 13 1.0 6.0 0.00 0.00 0.00 81 1009.6
20260505223008 45 8 1.0 3.0 0.00 0.00 0.00 81 1009.7
20260505222005 45 21 1.0 5.0 0.00 0.00 0.00 81 1009.8
20260505221005 45 7 2.0 7.0 0.00 0.00 0.00 81 1009.8
20260505220009 45 9 2.0 7.0 0.00 0.00 0.00 81 1009.8